Home   Weather   Rennes   Past weeks

Flag for France Past Weather in Rennes, Brittany, France — Yesterday and Last 2 Weeks

50 °F


Feels Like: 50 °F
Forecast: 41 / 59 °F
Wind: 2 mph from Northwest

Location: Rennes Airport

Current Time: Oct 20, 2016 at 11:24:11 PM

Latest Report: Oct 20, 2016 at 10:30 PM

Visibility: 10 mi

Pressure: 30.15 "Hg

Humidity: 88%

Dew Point: 46 °F

Location of RennesLocation

Past Weather in Rennes — Graph


Rennes Temperature Yesterday

Maximum temperature yesterday: 57 °F (at 3:00 PM)
Minimum temperature yesterday: 41 °F (at 7:00 AM)
Average temperature yesterday: 49 °F

High & Low Weather Summary for the Past Weeks

High66 °F (Oct 17, 5:00 PM)100% (Oct 9, 3:00 AM)30.30 "Hg (Oct 9, 3:00 AM)
Low37 °F (Oct 10, 5:00 AM)36% (Oct 12, 3:00 PM)29.65 "Hg (Oct 14, 4:00 AM)
Average52 °F79%30.06 "Hg
* Reported Oct 5 10:00 PM — Oct 20 10:00 PM, Rennes, Weather by CustomWeather, © 2016

Note: Actual official high and low records may vary slightly from our data, if they occured in-between our weather recording intervals... More about our weather records


Rennes Weather History for the Previous 24 Hours

Scroll right to see more
Time TempWeatherWind HumidityBarometerVisibility
10:00 PM
Thu, Oct 20
52 °FClear.6 mph88%30.15 "Hg10 mi
9:30 PM52 °FClear.5 mph88%30.12 "Hg10 mi
9:00 PM52 °FClear.5 mph82%30.12 "Hg10 mi
8:30 PM52 °FOvercast.3 mph82%30.12 "HgN/A
8:00 PM54 °FOvercast.3 mph77%30.12 "HgN/A
7:30 PM54 °FClear.6 mph72%30.12 "Hg10 mi
7:00 PM55 °FOvercast.7 mph67%30.12 "HgN/A
6:30 PM55 °FOvercast.6 mph72%30.12 "HgN/A
6:00 PM57 °FSunny.9 mph67%30.12 "Hg10 mi
5:30 PM59 °FSunny.10 mph59%30.12 "Hg10 mi
5:00 PM57 °FPartly sunny.8 mph63%30.12 "HgN/A
4:30 PM57 °FPartly sunny.8 mph63%30.12 "HgN/A
4:00 PM57 °FSunny.9 mph63%30.12 "Hg10 mi
3:30 PM57 °FMore clouds than sun.9 mph63%30.12 "HgN/A
3:00 PM59 °FOvercast.7 mph59%30.15 "HgN/A
2:30 PM57 °FMostly cloudy.8 mph63%30.15 "HgN/A
2:00 PM59 °FPartly sunny.7 mph63%30.15 "HgN/A
1:30 PM57 °FBroken clouds.6 mph72%30.15 "HgN/A
1:00 PM55 °FOvercast.6 mph82%30.15 "HgN/A
12:30 PM55 °FMore clouds than sun.3 mph77%30.18 "HgN/A
12:00 PM54 °FOvercast.2 mph88%30.18 "HgN/A
11:30 AM54 °FSunny.3 mph88%30.18 "Hg10 mi
11:00 AM52 °FPassing clouds.5 mph88%30.18 "HgN/A
10:30 AM50 °FSunny.3 mph94%30.18 "Hg10 mi
10:00 AM48 °FSunny.3 mph100%30.18 "Hg10 mi
9:30 AM48 °FSunny.3 mph94%30.15 "Hg10 mi
9:00 AM46 °FClear.3 mph100%30.15 "Hg5 mi
8:30 AM46 °FClear.3 mph100%30.15 "Hg10 mi
8:00 AM46 °FClear.3 mph93%30.15 "Hg10 mi
7:30 AM48 °FClear.3 mph94%30.15 "Hg10 mi
7:00 AM46 °FClear.5 mph100%30.15 "Hg10 mi
6:30 AM48 °FClear.5 mph94%30.15 "Hg10 mi
6:00 AM48 °FClear.5 mph94%30.15 "Hg10 mi
5:30 AM48 °FClear.6 mph94%30.15 "Hg10 mi
5:00 AM48 °FClear.2 mph94%30.15 "Hg10 mi
4:30 AM48 °FOvercast.6 mph94%30.15 "HgN/A
4:00 AM46 °FOvercast.6 mph100%30.15 "HgN/A
3:30 AM45 °FPartly cloudy.3 mph100%30.15 "HgN/A
3:00 AM46 °FPassing clouds.2 mph93%30.18 "HgN/A
2:30 AM46 °FClear.3 mph93%30.18 "Hg10 mi
2:00 AM46 °FClear.2 mph93%30.18 "Hg10 mi
1:30 AM48 °FClear.5 mph94%30.18 "Hg10 mi
1:00 AM50 °FLight rain. Mostly cloudy.3 mph88%30.18 "HgN/A
12:30 AM48 °FPartly cloudy.3 mph87%30.18 "HgN/A
12:00 AM50 °FOvercast.3 mph82%30.18 "HgN/A
11:30 PM
Wed, Oct 19
50 °FClear.5 mph82%30.21 "Hg10 mi
11:00 PM50 °FClear.8 mph82%30.18 "Hg10 mi
Weather by CustomWeather, © 2016

See weather overviewHow to use our weather pages